APG216 RPVE-RPLL

Flight info

Callsign APG216
Flight time 0h 39m
Altitude 24000
Route MINOR8A MINOR B473 LAIYA LAIYA5R
Aircraft A320/M-SDE3FGHIRWY/LB1

Departure

Time 2026-05-04 16:13
Airport Godofredo P. Ramos Airport (RPVE)

Arrival

Time 2026-05-04 16:52
Airport Ninoy Aquino International Airport (RPLL)
Time Latitude Longitude Altitude Speed Heading
2026-05-04 15:47 11.92544 121.96293 41 ft 0 kts 62°
2026-05-04 16:05 11.92537 121.96278 43 ft 3 kts 62°
2026-05-04 16:05 11.92510 121.96258 42 ft 1 kts 341°
2026-05-04 16:06 11.92529 121.96255 40 ft 3 kts 358°
2026-05-04 16:06 11.92547 121.96250 42 ft 0 kts 337°
2026-05-04 16:08 11.92572 121.96239 41 ft 10 kts 335°
2026-05-04 16:09 11.92694 121.96173 41 ft 9 kts 335°
2026-05-04 16:09 11.92810 121.96101 34 ft 7 kts 272°
2026-05-04 16:10 11.92767 121.96020 34 ft 16 kts 243°
2026-05-04 16:11 11.92439 121.95363 32 ft 41 kts 243°
2026-05-04 16:11 11.92344 121.95169 33 ft 23 kts 242°
2026-05-04 16:12 11.92269 121.95029 34 ft 2 kts 41°
2026-05-04 16:12 11.92665 121.95823 35 ft 129 kts 63°
2026-05-04 16:13 11.93649 121.97704 1045 ft 153 kts 63°
2026-05-04 16:13 11.94617 121.99673 2153 ft 163 kts 65°
2026-05-04 16:14 11.95795 122.02035 2615 ft 211 kts 61°
2026-05-04 16:14 11.98319 122.03982 3459 ft 254 kts 29°
2026-05-04 16:15 12.03254 122.06448 5717 ft 270 kts 28°
2026-05-04 16:16 12.06653 122.08155 7208 ft 277 kts 28°
2026-05-04 16:16 12.11945 122.10825 9419 ft 288 kts 28°
2026-05-04 16:17 12.15591 122.12673 10590 ft 303 kts 28°
2026-05-04 16:18 12.21749 122.15804 11655 ft 344 kts 28°
2026-05-04 16:18 12.23904 122.16899 12268 ft 347 kts 28°
2026-05-04 16:19 12.30467 122.20228 14022 ft 357 kts 28°
2026-05-04 16:19 12.35209 122.21852 15039 ft 369 kts
2026-05-04 16:20 12.42556 122.19495 16525 ft 385 kts 327°
2026-05-04 16:20 12.47023 122.16379 17514 ft 391 kts 327°
2026-05-04 16:21 12.53846 122.11641 18886 ft 400 kts 327°
2026-05-04 16:22 12.58479 122.08425 19749 ft 405 kts 327°
2026-05-04 16:22 12.65537 122.03517 21056 ft 413 kts 327°
2026-05-04 16:23 12.72720 121.98507 22336 ft 421 kts 327°
2026-05-04 16:24 12.82479 121.91715 23837 ft 429 kts 326°
2026-05-04 16:25 12.87363 121.88312 23944 ft 417 kts 326°
2026-05-04 16:26 12.96882 121.81673 23942 ft 413 kts 326°
2026-05-04 16:26 13.04005 121.76708 23942 ft 412 kts 326°
2026-05-04 16:27 13.08741 121.73400 23883 ft 409 kts 326°
2026-05-04 16:28 13.15546 121.68639 23180 ft 387 kts 326°
2026-05-04 16:28 13.22163 121.64013 22421 ft 381 kts 326°
2026-05-04 16:29 13.30881 121.57910 21426 ft 377 kts 326°
2026-05-04 16:30 13.37316 121.53398 20211 ft 372 kts 326°
2026-05-04 16:31 13.41597 121.50396 19289 ft 373 kts 327°
2026-05-04 16:31 13.48005 121.45907 17884 ft 374 kts 327°
2026-05-04 16:32 13.53673 121.41930 17014 ft 360 kts 327°
2026-05-04 16:33 13.58343 121.38634 15863 ft 341 kts 326°
2026-05-04 16:33 13.62114 121.35838 15343 ft 334 kts 325°
2026-05-04 16:34 13.65252 121.33476 14964 ft 335 kts 325°
2026-05-04 16:34 13.67730 121.31616 14663 ft 331 kts 325°
2026-05-04 16:35 13.72659 121.27932 14060 ft 327 kts 325°
2026-05-04 16:35 13.78025 121.23646 13341 ft 325 kts 314°
2026-05-04 16:36 13.79564 121.21948 13094 ft 324 kts 314°
2026-05-04 16:36 13.82628 121.18567 12597 ft 321 kts 314°
2026-05-04 16:37 13.85633 121.15236 12113 ft 318 kts 314°
2026-05-04 16:37 13.87138 121.13570 11870 ft 317 kts 314°
2026-05-04 16:37 13.90127 121.10259 11394 ft 314 kts 314°
2026-05-04 16:38 13.93087 121.06972 10919 ft 312 kts 314°
2026-05-04 16:39 13.97480 121.02096 10227 ft 308 kts 314°
2026-05-04 16:39 14.00376 120.98872 9859 ft 305 kts 315°
2026-05-04 16:40 14.03244 120.95686 9615 ft 304 kts 315°
2026-05-04 16:40 14.06117 120.92496 9356 ft 303 kts 315°
2026-05-04 16:41 14.08982 120.89317 9103 ft 301 kts 315°
2026-05-04 16:41 14.13230 120.84597 8731 ft 299 kts 315°
2026-05-04 16:42 14.17427 120.79927 7788 ft 294 kts 315°
2026-05-04 16:43 14.20212 120.76849 6996 ft 291 kts 319°
2026-05-04 16:43 14.23583 120.74578 6068 ft 291 kts 333°
2026-05-04 16:43 14.25314 120.73568 5623 ft 280 kts 333°
2026-05-04 16:44 14.31697 120.71310 5115 ft 233 kts 14°
2026-05-04 16:45 14.34452 120.72824 4986 ft 215 kts 47°
2026-05-04 16:46 14.36704 120.76513 4891 ft 202 kts 60°
2026-05-04 16:46 14.38097 120.79011 4440 ft 199 kts 60°
2026-05-04 16:47 14.39471 120.81478 3929 ft 197 kts 61°
2026-05-04 16:47 14.40826 120.83910 3433 ft 194 kts 61°
2026-05-04 16:48 14.42794 120.87444 2705 ft 179 kts 60°
2026-05-04 16:48 14.43393 120.88520 2485 ft 172 kts 62°
2026-05-04 16:49 14.44540 120.90580 2076 ft 159 kts 61°
2026-05-04 16:49 14.45573 120.92437 1688 ft 144 kts 62°
2026-05-04 16:50 14.46548 120.94189 1317 ft 140 kts 61°
2026-05-04 16:50 14.47521 120.95939 959 ft 141 kts 62°
2026-05-04 16:51 14.48500 120.97703 596 ft 140 kts 63°
2026-05-04 16:51 14.48987 120.98582 382 ft 143 kts 61°
2026-05-04 16:51 14.49964 121.00322 87 ft 140 kts 64°
2026-05-04 16:52 14.50644 121.01567 68 ft 40 kts 61°
2026-05-04 16:52 14.50771 121.01724 68 ft 23 kts 40°
2026-05-04 16:53 14.50885 121.01788 61 ft 3 kts 343°
2026-05-04 16:53 14.50890 121.01710 65 ft 8 kts 246°
2026-05-04 16:54 14.50896 121.01664 66 ft 6 kts 310°
2026-05-04 16:55 14.50839 121.01473 64 ft 9 kts 240°
2026-05-04 16:55 14.50811 121.01426 67 ft 1 kts 239°
2026-05-04 16:56 14.50846 121.01391 65 ft 5 kts 329°
2026-05-04 16:56 14.50885 121.01368 64 ft 0 kts 329°